This is the latest recevied weather packets stored in our database for station/object M0ADS. If no packets are shown the sender has not sent any weather packets the latest 10 day(s).
| Time | Temp. | Humidity | Pressure | Rain* | Wind** | Luminosity | Snow |
|---|---|---|---|---|---|---|---|
| 1777198494 | 12.78° C | 69% | 1024.9 hPa | 0 mm | - | - | - |
| 1777197594 | 12.78° C | 70% | 1025 hPa | 0 mm | - | - | - |
| 1777196692 | 12.22° C | 72% | 1025 hPa | 0 mm | - | - | - |
| 1777195789 | 11.67° C | 73% | 1025.2 hPa | 0 mm | - | - | - |
| 1777194889 | 11.11° C | 76% | 1025.2 hPa | 0 mm | - | - | - |
| 1777193989 | 10.56° C | 77% | 1025.2 hPa | 0 mm | - | - | - |
| 1777193088 | 9.44° C | 80% | 1025.4 hPa | 0 mm | - | - | - |
| 1777192187 | 8.89° C | 80% | 1025.3 hPa | 0 mm | - | - | - |
| 1777191287 | 8.89° C | 82% | 1025.4 hPa | 0 mm | - | - | - |
| 1777190387 | 8.33° C | 82% | 1025.4 hPa | 0 mm | - | - | - |
| 1777189487 | 7.78° C | 83% | 1025.5 hPa | 0 mm | - | - | - |
| 1777188587 | 7.78° C | 84% | 1025.5 hPa | 0 mm | - | - | - |
| 1777187687 | 7.22° C | 84% | 1025.5 hPa | 0 mm | - | - | - |
| 1777186787 | 7.22° C | 85% | 1025.4 hPa | 0 mm | - | - | - |
| 1777185886 | 6.67° C | 85% | 1025.4 hPa | 0 mm | - | - | - |
| 1777184987 | 6.67° C | 85% | 1025.4 hPa | 0 mm | - | - | - |
| 1777184087 | 6.67° C | 85% | 1025.5 hPa | 0 mm | - | - | - |
| 1777183187 | 6.11° C | 85% | 1025.4 hPa | 0 mm | - | - | - |
| 1777182287 | 6.11° C | 85% | 1025.3 hPa | 0 mm | - | - | - |
| 1777181387 | 6.11° C | 85% | 1025.2 hPa | 0 mm | - | - | - |
| 1777180487 | 6.11° C | 85% | 1025.1 hPa | 0 mm | - | - | - |
| 1777179585 | 6.11° C | 85% | 1025 hPa | 0 mm | - | - | - |
| 1777178685 | 6.11° C | 85% | 1025 hPa | 0 mm | - | - | - |
| 1777177785 | 6.11° C | 85% | 1025 hPa | 0 mm | - | - | - |
| 1777176882 | 5.56° C | 85% | 1024.9 hPa | 0 mm | - | - | - |
* Rain latest hour (hover to see other rain measurements)
** Current wind speed in m/s (hover to see current wind gust speed)